Regional Weather Roundup
Issued by NWS

Home | Current Version | Previous Version | Graphics & Text | Print | Product List | Glossary On
Versions: 1 2 3 4 5 6 7 8 9 10 11 12 13 14 15 16 17 18 19 20 21 22 23 24 25 26 27 28 29 30 31 32 33 34 35 36 37 38 39 40 41 42 43 44 45 46 47 48 49 50
000
ASUS43 KBIS 120410
RWRND
NORTH DAKOTA REGIONAL WEATHER ROUNDUP
NATIONAL WEATHER SERVICE EASTERN NORTH DAKOTA/GRAND FORKS ND
1000 PM CST THU FEB 11 2016

  NOTE: "FAIR" INDICATES FEW OR NO CLOUDS BELOW 12,000 FEET WITH NO
  SIGNIFICANT WEATHER AND/OR OBSTRUCTIONS TO VISIBILITY.

NDZ001>003-009>011-017-120500-
...NORTHWEST NORTH DAKOTA...

CITY           SKY/WX    TMP DP  RH WIND       PRES   REMARKS
WILLISTON      CLOUDY    20  16  84 N3        30.31R
MINOT          CLOUDY    19  10  68 NW7       30.28R WCI  10
MINOT AFB      CLOUDY    17  13  88 N8        30.28R WCI   6
$$

NDZ018>021-031>035-040>046-120500-
...SOUTHWEST NORTH DAKOTA...

CITY           SKY/WX    TMP DP  RH WIND       PRES   REMARKS
BISMARCK       MOCLDY    21  13  71 N7        30.29S WCI  12
DICKINSON      CLOUDY    22  18  85 N10       30.22R WCI  11
GARRISON         N/A     13  10  88 N5        30.27R WCI   5
HETTINGER      LGT SNOW  23  19  85 W6        30.24R FOG     WCI  16
$$

NDZ004>008-012>016-024-026-027-054-120500-
...NORTHEAST NORTH DAKOTA...

CITY           SKY/WX    TMP DP  RH WIND       PRES   REMARKS
GRAND FORKS    CLOUDY    11   5  77 NW9       30.31R WCI  -2
GRAND FORKS AF CLOUDY    10   5  79 N8        30.31R WCI  -1
DEVILS LAKE    CLOUDY     8   4  83 NW6       30.28S WCI  -2
$$

NDZ022-023-025-028>030-036>039-047>053-120500-
...SOUTHEAST NORTH DAKOTA...

CITY           SKY/WX    TMP DP  RH WIND       PRES   REMARKS
JAMESTOWN      PTCLDY     7   3  84 NW7       30.26S WCI  -5
FARGO          CLOUDY    12   6  77 NW8       30.29R WCI   0
WAHPETON       CLOUDY    12   5  73 NW9       30.29R WCI   0
$$



USA.gov is the U.S. government's official web portal to all federal, state and local government web resources and services.